AO-07 1 07530U 74089B 18109.53250831 -.00000038 00000-0 39339-4 0 9992 2 07530 101.6814 077.7460 0012520 088.5139 031.4897 12.53632079987018 UO-11 1 14781U 84021B 18109.56944118 .00000060 00000-0 13562-4 0 9990 2 14781 097.6560 148.2642 0006967 276.3764 083.6657 14.82995929814754 LO-19 1 20442U 90005G 18109.41675893 .00000009 00000-0 19437-4 0 9995 2 20442 098.6062 048.2833 0011175 329.0456 031.0068 14.32892494475412 HUBBLE 1 20580U 90037B 18109.46318075 .00000455 00000-0 16901-4 0 9992 2 20580 028.4687 143.2999 0002516 224.9814 273.8017 15.09019544336506 MET-2/21 1 22782U 93055A 18109.60731503 .00000013 00000-0 -16690-5 0 9999 2 22782 082.5471 140.4273 0020930 292.7991 186.4783 13.83808137243800 AO-27 1 22825U 93061C 18109.51735185 -.00000004 00000-0 16134-4 0 9996 2 22825 098.8577 084.5864 0008851 151.2164 208.9508 14.30027345280913 IO-26 1 22826U 93061D 18109.54775462 .00000003 00000-0 18814-4 0 9997 2 22826 098.8518 084.6625 0009553 141.8277 218.3583 14.30358571281125 FO-29 1 24278U 96046B 18109.51672377 -.00000037 00000-0 14178-5 0 9992 2 24278 098.5224 316.3415 0349290 263.1456 092.9835 13.53083029070054 NOAA-15 1 25338U 98030A 18109.59687202 .00000019 00000-0 26710-4 0 9999 2 25338 098.7732 125.9796 0011201 042.7753 317.4297 14.25846963036416 GO-32 1 25397U 98043D 18109.41633206 .00000003 00000-0 20492-4 0 9998 2 25397 98.6455 50.8420 0001500 142.8273 217.3010 14.23643644 27366 ISS 1 25544U 98067A 18109.90523572 .00006459 00000-0 10470-3 0 9991 2 25544 51.6414 309.2560 0002704 357.7457 151.8240 15.54135434109454 NO-44 1 26931U 01043C 18109.76508590 -.00000012 00000-0 27275-4 0 9999 2 26931 67.0532 20.1564 0007073 281.8582 78.1726 14.30501303864194 SO-50 1 27607U 02058C 18109.58282892 -.00000011 00000-0 19182-4 0 9998 2 27607 064.5545 269.1658 0058557 341.7869 018.1134 14.75439957824183 CO-55 1 27844U 03031E 18109.56143390 .00000044 00000-0 39599-4 0 9999 2 27844 098.6886 119.0785 0009898 174.3651 185.7640 14.22106557767828 CO-57 1 27848U 03031J 18109.50445586 .00000031 00000-0 34003-4 0 9990 2 27848 098.6974 119.4004 0009566 184.5911 175.5180 14.21711390767699 RS-22 1 27939U 03042A 18109.86329200 .00000122 00000-0 30459-4 0 9998 2 27939 97.9806 250.5350 0012328 339.4061 172.2487 14.66675873778267 NOAA-18 1 28654U 05018A 18109.59097092 .00000011 00000-0 31489-4 0 9990 2 28654 099.1516 143.8329 0013264 293.4399 066.5377 14.12372895665411 CO-58 1 28895U 05043F 18109.41114025 .00000148 00000-0 37288-4 0 9996 2 28895 097.9007 263.2749 0015464 253.7191 106.2311 14.63532126665045 Falconsat-3 1 30776U 07006E 18109.71229508 .00002805 00000-0 84030-4 0 9993 2 30776 35.4358 278.9342 0003676 236.3485 123.6891 15.34270136615331 CO-65 1 32785U 08021C 18109.75002747 .00000208 00000-0 28193-4 0 9994 2 32785 97.5501 124.7107 0011898 227.5193 132.5020 14.88096911540483 AAUSAT2 1 32788U 08021F 18109.56391791 .00000787 00000-0 78294-4 0 9995 2 32788 097.5272 138.4976 0012005 177.0618 183.0675 14.94291444541325 DO-64 1 32789U 08021G 18109.70906797 .00001709 00000-0 12149-3 0 9991 2 32789 97.5177 165.9875 0013781 133.6205 226.6168 15.05918440542984 CO-66 1 32791U 08021J 18109.73241255 .00000422 00000-0 48523-4 0 9995 2 32791 97.5402 129.9185 0012640 207.0750 152.9811 14.90517029540802 RS-30 1 32953U 08025A 18109.84907107 .00000028 00000-0 13347-3 0 9993 2 32953 82.5057 48.9542 0019061 341.0789 18.9581 12.43082892449527 PRISM 1 33493U 09002B 18109.71746013 .00000180 00000-0 21619-4 0 9993 2 33493 98.1366 9.5494 0015648 145.1164 215.1099 14.96149894501608 NOAA-19 1 33591U 09005A 18109.55002600 .00000075 00000-0 66053-4 0 9998 2 33591 099.1374 086.4287 0014751 128.8093 231.4398 14.12270828473638 TISAT-1 1 36799U 10035E 18109.58767646 .00000524 00000-0 59315-4 0 9999 2 36799 098.0967 244.2838 0013234 046.1557 314.0752 14.90756562421225 JUGNU 1 37839U 11058B 18109.16460566 .00000322 00000-0 30006-4 0 9998 2 37839 019.9622 035.1483 0018741 316.2568 183.9924 14.12616220336909 SRMSAT 1 37841U 11058D 18109.31220843 .00000296 00000-0 17452-4 0 9990 2 37841 019.9721 082.2401 0011847 203.0179 302.6753 14.10603661336460 AO-71 1 37854U 11061E 18109.59129527 .00000692 00000-0 44401-4 0 9999 2 37854 101.7090 144.5486 0163906 247.1919 111.1908 15.05290917352568 HRBE 1 37855U 11061F 18109.81119890 .00000649 00000-0 41602-4 0 9999 2 37855 101.7227 142.4802 0176819 254.9414 103.2172 15.04274438352871 ALMASAT-1 1 38078U 12006B 18109.88954985 .00016445 38277-5 15249-3 0 9996 2 38078 69.4357 17.6736 0255427 194.8621 235.3001 15.37088488331685 HORYU-2 1 38340U 12025D 18109.89158572 .00000199 00000-0 37276-4 0 9990 2 38340 98.3703 129.5999 0012405 42.0561 318.1597 14.75531207318511 RS-40 1 38735U 12041C 18109.57812739 .00000005 00000-0 -35655-4 0 9999 2 38735 082.4725 133.1685 0018191 082.8741 277.4406 12.42576620259723 BEESAT-3 1 39134U 13015E 18109.34530988 .00001419 00000-0 76778-4 0 9993 2 39134 064.8637 317.2316 0019650 218.8024 141.1693 15.19005725275582 BEESAT-2 1 39136U 13015G 18109.08836869 .00000997 00000-0 61472-4 0 9998 2 39136 064.8700 333.2837 0026622 241.8577 117.9858 15.16023005275242 ZACUBE-1 1 39417U 13066B 18109.66664913 .00000218 00000-0 34050-4 0 9997 2 39417 97.5931 141.4121 0058718 348.4220 11.5638 14.80910832238133 TRITON-1 1 39427U 13066M 18109.60025172 .00000223 00000-0 43265-4 0 9994 2 39427 97.6403 109.4137 0115678 87.1223 274.3215 14.67638666235986 GOMX-1 1 39430U 13066Q 18109.87538846 .00000184 00000-0 42016-4 0 9993 2 39430 97.6934 90.9675 0152172 154.1077 206.7841 14.59054386234651 LO-74 1 39440U 13066AA 18109.62277324 .00000218 00000-0 37364-4 0 9996 2 39440 97.6051 128.3273 0081203 26.8040 333.7331 14.75645525237289 AO-73 1 39444U 13066AE 18109.55812248 .00000259 00000-0 38466-4 0 9991 2 39444 097.5941 142.7602 0057715 344.3741 015.5689 14.81681851236383 SPROUT 1 39770U 14029E 18109.70705507 .00000636 00000-0 77529-4 0 9991 2 39770 97.8731 211.2550 0010309 48.3180 311.8914 14.86770611211671 DUCHIFAT-1 1 40021U 14033M 18109.30899504 .00000523 00000-0 59717-4 0 9998 2 40021 097.9171 027.9207 0013601 018.9414 341.2306 14.90259447208181 NANOSATCBR1 1 40024U 14033Q 18109.32104988 .00000423 00000-0 50323-4 0 9991 2 40024 097.9109 026.2913 0012898 021.1046 339.0701 14.89528843207590 EO-79 1 40025U 14033R 18109.73860855 .00000284 00000-0 36437-4 0 9994 2 40025 97.9070 25.2521 0013142 23.7804 336.4017 14.88680214208092 DTUSAT-2 1 40030U 14033W 18109.48655149 .00000281 00000-0 36463-4 0 9996 2 40030 097.9020 023.7707 0012517 020.0412 340.1293 14.88290850207496 EO-80 1 40032U 14033Y 18109.54200490 .00000274 00000-0 35787-4 0 9990 2 40032 097.9027 023.8293 0012438 020.5059 339.6655 14.88227342207480 ANTELSAT 1 40034U 14033AA 18109.61720536 .00000238 00000-0 42940-4 0 9997 2 40034 097.8194 348.3676 0059703 027.9817 332.4580 14.73896460205523 VELOX-1 1 40057U 14034E 18109.79306256 .00000342 00000-0 55608-4 0 9992 2 40057 98.1965 219.8530 0011830 149.0333 211.1575 14.77390249205027 DAURIA DX 1 1 40071U 14037C 18109.84857244 .00000138 00000-0 25237-4 0 9993 2 40071 98.3646 238.6385 0009157 140.8701 219.3179 14.81144167204362 UKUBE-1 1 40074U 14037F 18109.68479037 .00000334 00000-0 47517-4 0 9991 2 40074 98.3775 244.0171 0005570 132.4116 227.7579 14.83764089204623 HODOYOSHI-1 1 40299U 14070B 18109.78423852 .00000724 00000-0 33846-4 0 9995 2 40299 97.3781 192.5876 0014797 94.3527 20.1551 15.22825069191596 CHUBUSAT-1 1 40300U 14070C 18109.76151392 .00000767 00000-0 36963-4 0 9993 2 40300 97.3672 188.7008 0022000 105.4718 10.3891 15.21489079191396 QSAT-EOS 1 40301U 14070D 18109.85230741 .00001998 00000-0 83164-4 0 9992 2 40301 97.3610 189.8496 0028315 96.8055 39.8556 15.24564906191530 FIREBIRD FU3 1 40377U 15003B 18109.75157404 .00002440 00000-0 10286-3 0 9992 2 40377 99.0927 359.9053 0132940 65.2051 296.2939 15.16983208177469 FIREBIRD FU4 1 40378U 15003C 18109.74079778 .00002337 00000-0 98606-4 0 9997 2 40378 99.0930 359.9472 0133153 65.1377 296.3628 15.16993321177469 GRIFEX 1 40379U 15003D 18109.73102154 .00001746 00000-0 79722-4 0 9993 2 40379 99.0967 356.3625 0139974 76.8295 284.8507 15.14163244177252 NO-84 1 40654U 15025D 18109.17802873 .00005524 00000-0 97522-4 0 02759 2 40654 054.9943 302.6712 0158215 320.2567 038.6955 15.39559591046753 NO-83 1 40655U 15025E 18109.42163295 .00014804 00000-0 16995-3 0 03189 2 40655 054.9765 251.1975 0113543 351.3728 008.5338 15.54816318047138 DEORBITSAIL 1 40719U 15032E 18109.69659282 .00000422 00000-0 67978-4 0 9997 2 40719 97.9512 4.1467 0015074 234.4131 125.5675 14.76388712149544 NUDT-PHONESAT 1 40900U 15049B 18109.82745026 .00002184 00000-0 10130-3 0 9998 2 40900 97.4427 118.7595 0012111 228.4197 131.6001 15.21071179143041 XW-2A 1 40903U 15049E 18109.84195944 .00001836 00000-0 47657-4 0 9999 2 40903 97.3906 144.1049 0012764 236.9081 123.0940 15.40264543144826 XW-2C 1 40906U 15049H 18109.87139844 .00000647 00000-0 37992-4 0 9992 2 40906 97.4606 114.4344 0013764 227.8884 132.1179 15.15112485142660 XW-2D 1 40907U 15049J 18109.76352006 .00000679 00000-0 39561-4 0 9997 2 40907 97.4580 114.0325 0013158 225.7406 134.2748 15.15257525142650 LILACSAT-2 1 40908U 15049K 18109.89849986 .00000366 00000-0 24048-4 0 9997 2 40908 97.4690 113.5984 0014798 227.0992 132.8998 15.13464557142557 XW-2F 1 40910U 15049M 18109.75736300 .00001014 00000-0 55544-4 0 9996 2 40910 97.4584 115.2361 0013937 221.5731 138.4443 15.16410171142591 XW-2B 1 40911U 15049N 18109.84494268 .00000685 00000-0 39914-4 0 9997 2 40911 97.4616 114.6280 0013068 226.0346 133.9809 15.15203663142566 DCBB 1 40912U 15049P 18109.84855619 .00001024 00000-0 52696-4 0 9999 2 40912 97.4510 118.0031 0014038 210.1189 271.7095 15.18610818142812 TW-1C 1 40926U 15051B 18109.84980858 .00007750 00000-0 14935-3 0 9996 2 40926 97.1891 152.4825 0011628 124.2843 290.1260 15.48064961144280 TW-1A 1 40928U 15051D 18109.86940041 .00003047 00000-0 82473-4 0 9998 2 40928 97.1905 145.0022 0012167 163.2429 301.3394 15.38379755143817 IO-86 1 40931U 15052B 18108.95670505 .00000641 00000-0 18466-6 0 9997 2 40931 5.9993 212.4576 0013628 253.6167 106.2540 14.76571521138235 LQSat 1 40958U 15057A 18109.88299623 .00000050 00000-0 15421-4 0 9992 2 40958 97.9436 184.2968 0018542 159.1634 201.0316 14.73026068136261 AO-85 1 40967U 15058D 18109.10603829 .00000272 00000-0 47156-4 0 03007 2 40967 064.7799 010.6263 0201470 332.0190 027.0199 14.75690527044934 ATHENOXAT-1 1 41168U 15077C 18109.54449488 .00002243 00000-0 86601-4 0 9991 2 41168 14.9852 89.4821 0011817 306.6386 168.4705 15.12638243129483 ChubuSat-2 1 41338U 16012B 18108.95485560 .00000388 00000-0 23581-4 0 9991 2 41338 031.0041 329.9720 0013959 207.4608 152.5290 14.99957017118934 ChubuSat-3 1 41339U 16012C 18109.84103032 .00000320 00000-0 18162-4 0 9997 2 41339 31.0120 323.0190 0013945 223.5614 136.3913 15.00146450119050 Horyu-4 1 41340U 16012D 18108.93414147 .00000560 00000-0 36088-4 0 9993 2 41340 031.0060 323.9830 0014255 226.3050 133.6405 15.00945670118983 OUFTI-1 1 41458U 16025C 18109.84660881 .00001544 00000-0 84527-4 0 9990 2 41458 98.1399 169.5642 0170364 343.8005 15.7792 15.04487975108662 e-st@r-II 1 41459U 16025D 18109.71031760 .00001764 00000-0 96296-4 0 9995 2 41459 98.1433 169.2863 0171262 344.8333 14.7788 15.04235063108637 AAUSAT4 1 41460U 16025E 18109.74310185 .00002035 00000-0 10955-3 0 9990 2 41460 98.1362 169.7332 0162081 341.4304 18.1035 15.05605797108691 LO-87 1 41557U 16033B 18109.76181501 .00001352 00000-0 51831-4 0 9996 2 41557 97.4372 194.0884 0013959 11.3610 348.7942 15.28191519105239 NuSat2 1 41558U 16033C 18109.82863022 .00001391 00000-0 53525-4 0 9994 2 41558 97.4400 194.2431 0013380 10.3770 349.7743 15.28024674105233 Lapan A3 1 41603U 16040E 18109.80602755 .00000097 00000-0 77703-5 0 9992 2 41603 97.4168 172.3704 0015201 83.9161 53.7471 15.19540511101216 Swayam 1 41607U 16040J 18109.41701029 .00001656 00000-0 75316-4 0 9996 2 41607 097.4186 173.2118 0015597 085.9188 274.3830 15.22042193101169 Pratham 1 41783U 16059A 18109.17883118 .00000074 00000-0 23923-4 0 9994 2 41783 98.1233 171.6740 0032230 281.2724 78.4856 14.62913740 83335 AlSat 1N 1 41789U 16059G 18109.73250632 .00000116 00000-0 31295-4 0 9999 2 41789 98.1239 173.3221 0026989 272.5385 87.2719 14.64143459 83464 ScatSat 1 41790U 16059H 18109.55473466 .00000013 00000-0 14518-4 0 9998 2 41790 098.2666 158.3877 0016962 271.8845 088.0407 14.50867946082689 TY-1 1 41844U 16066D 18109.85973323 .00001382 00000-0 61543-4 0 9996 2 41844 97.4065 117.6026 0013796 239.6722 166.1941 15.23076600 80000 Pegasus-1 1 41846U 16066F 18109.57458880 .00000369 00000-0 65705-4 0 9991 2 41846 098.7595 136.8116 0369413 061.0074 302.7612 14.37302599075486 CAS-2T 1 41847U 16066G 18109.72977689 .00000119 00000-0 27827-4 0 9998 2 41847 98.7559 137.3855 0367263 58.2511 305.3914 14.37879744 75922 TO-89 1 41932U 98067KU 18109.53353885 .00025630 00000-0 19015-3 0 9993 2 41932 051.6361 282.3002 0003582 322.1846 037.8900 15.72696839071522 AOBA-V3LOX3 1 41935U 98067KX 18109.73731392 .00035888 00000-0 23510-3 0 9992 2 41935 51.6361 278.3651 0003356 319.6248 40.4502 15.75410121 71693 EO-88 1 42017U 17008BX 18109.47649777 .00001560 00000-0 66907-4 0 9994 2 42017 097.4534 174.8732 0005473 213.3657 146.7236 15.24245354065124 HAVELSAT 1 42700U 98067LH 18109.83186029 .00026690 00000-0 23937-3 0 9999 2 42700 51.6363 292.5439 0003282 27.7386 332.3785 15.68096078 52852 SOMP2 1 42701U 98067LJ 18109.78838702 .00024561 00000-0 22726-3 0 9996 2 42701 51.6365 293.7539 0003382 28.0130 332.1048 15.67376175 52826 PHOENIX 1 42706U 98067LP 18109.72932694 .00018787 00000-0 17895-3 0 9994 2 42706 51.6363 294.1137 0000828 300.5119 59.5795 15.66847597 52734 X-CubeSat 1 42707U 98067LQ 18109.76541399 .00026294 00000-0 23265-3 0 9997 2 42707 51.6335 292.8045 0001055 292.0669 68.0216 15.68440255 52741 qbee 1 42708U 98067LR 18109.74768940 .00022995 00000-0 20942-3 0 9992 2 42708 51.6367 293.4707 0000930 296.4074 63.6827 15.67814546 52698 ZA-AeroSat 1 42713U 98067LU 18109.83833809 .00019759 00000-0 19741-3 0 9994 2 42713 51.6355 295.5824 0001849 296.5965 63.4841 15.65611636 52387 LINK 1 42714U 98067LV 18109.77015118 .00046442 00000-0 32693-3 0 9993 2 42714 51.6316 289.0341 0002841 283.8603 76.2079 15.73622747 52578 UPSat 1 42716U 98067LX 18109.75540217 .00033623 00000-0 26371-3 0 9999 2 42716 51.6345 290.5032 0001531 8.5894 351.5130 15.71223955 52578 SpaceCube 1 42717U 98067LY 18109.77232476 .00024487 00000-0 22309-3 0 9992 2 42717 51.6348 293.6282 0002041 25.9618 334.1480 15.67764144 51778 Hoopoe 1 42718U 98067LZ 18109.76014362 .00029840 00000-0 25149-3 0 9997 2 42718 51.6357 292.0507 0001721 12.9723 347.1318 15.69554363 51797 Challenger 1 42721U 98067MA 18109.73031101 .00058839 00000-0 35341-3 0 9993 2 42721 51.6303 286.5101 0003765 335.1253 24.9565 15.77164881 51568 NJUST-1 1 42722U 98067MB 18109.73861945 .00016575 00000-0 17185-3 0 9998 2 42722 51.6366 297.1797 0004899 11.9919 348.1192 15.64808322 51427 UNSW-EC0 1 42723U 98067MC 18109.78148097 .00030633 00000-0 25372-3 0 9998 2 42723 51.6376 292.2146 0003794 1.4467 358.6540 15.69956915 51473 DUTHsat 1 42724U 98067MD 18109.75889754 .00055020 00000-0 34854-3 0 9990 2 42724 51.6345 287.4856 0002896 335.8654 24.2210 15.75987072 51451 LO-90 1 42725U 98067ME 18109.86134111 .00023050 00000-0 21988-3 0 9995 2 42725 51.6365 294.9971 0003746 10.5131 349.5942 15.66658593 51365 nSIGHT1 1 42726U 98067MF 18109.74007144 .00009268 00000-0 11587-3 0 9997 2 42726 51.6389 301.7291 0005144 20.1777 339.9419 15.60608229 51278 SNUSAT 1B 1 42727U 98067MG 18109.74173630 .00020739 00000-0 19925-3 0 9992 2 42727 51.6349 295.6577 0005641 330.0683 29.9989 15.66545194 51314 QBITO 1 42728U 98067MH 18109.80373131 .00025683 00000-0 23288-3 0 9998 2 42728 51.6383 293.9015 0001657 4.2747 355.8263 15.67851480 51185 Aalto-2 1 42729U 98067MJ 18109.79148983 .00026727 00000-0 24009-3 0 9994 2 42729 51.6362 293.7776 0001594 2.4286 357.6718 15.68057672 51191 SUSat 1 42730U 98067MK 18109.73679655 .00020998 00000-0 19772-3 0 9990 2 42730 51.6361 294.9035 0001770 6.8039 353.2981 15.67050297 51169 i-INSPIRE II 1 42731U 98067ML 18109.73052768 .00028727 00000-0 23403-3 0 9995 2 42731 51.6347 291.8186 0005028 311.1558 48.9005 15.70386554 51252 PolyITAN-2-SAU 1 42732U 98067MM 18109.76357950 .00025826 00000-0 23016-3 0 9997 2 42732 51.6355 293.5624 0005225 312.4671 47.5884 15.68263134 51230 ExAlta-1 1 42734U 98067MP 18109.73072983 .00033354 00000-0 26682-3 0 9993 2 42734 51.6331 291.8069 0005427 336.3539 23.7208 15.70740621 51209 Aoxiang-1 1 42735U 98067MQ 18109.84206707 .00019170 00000-0 19581-3 0 9999 2 42735 51.6357 296.3528 0005351 8.5788 351.5297 15.65065074 52575 BeEagleSat 1 42736U 98067MR 18109.75433825 .00018210 00000-0 17839-3 0 9991 2 42736 51.6357 295.7598 0004999 6.4204 353.6855 15.66161883 51267 CAS-4B 1 42759U 17034B 18109.89395943 .00000224 00000-0 27367-4 0 9998 2 42759 43.0193 43.2748 0007584 101.2140 327.2992 15.09250563 46640 CAS-4A 1 42761U 17034D 18109.81803471 .00000379 00000-0 36877-4 0 9990 2 42761 43.0188 43.4976 0007848 102.0830 356.8866 15.09327828 46625 UCLSat 1 42765U 17036A 18109.42421361 .00001258 00000-0 58639-4 0 9994 2 42765 097.4068 170.2062 0010184 284.3989 075.6117 15.21688783046360 NIUSat 1 42766U 17036B 18109.35882446 .00001004 00000-0 49352-4 0 9993 2 42766 97.4070 169.5446 0014337 269.6982 90.2610 15.20258720 45592 LituanicaSAT 2 1 42768U 17036D 18109.59271282 .00001908 00000-0 88722-4 0 9998 2 42768 097.4082 170.0071 0014122 271.1960 088.7658 15.21110224045652 Aalto 1 1 42775U 17036L 18109.60140042 .00000827 00000-0 40773-4 0 9990 2 42775 097.4063 169.9688 0012577 269.5186 090.4608 15.20637542045597 URSA MAIOR 1 42776U 17036M 18109.59081598 .00000862 00000-0 42271-4 0 9993 2 42776 097.4070 169.9978 0012423 269.7607 090.2205 15.20707888045590 Max Valier Sat 1 42778U 17036P 18109.83585546 .00000987 00000-0 47331-4 0 9994 2 42778 97.4092 170.5032 0010955 274.2975 85.7009 15.21174174 45635 Pegasus 1 42784U 17036V 18109.71750701 .00001152 00000-0 54230-4 0 9996 2 42784 97.4071 170.4351 0010725 283.2030 76.8009 15.21507142 45624 NUDATSat 1 42787U 17036Y 18109.45939780 .00001731 00000-0 78786-4 0 9991 2 42787 097.4077 170.3291 0010261 283.7577 076.2517 15.22012695045433 SUCHAI 1 1 42788U 17036Z 18109.68458216 .00001339 00000-0 62099-4 0 9991 2 42788 97.4071 170.4774 0010324 283.3728 76.6357 15.21748672 45693 SKCUBE 1 42789U 17036AA 18109.61702639 .00001270 00000-0 59114-4 0 9994 2 42789 097.4071 170.4100 0010160 283.5102 076.5002 15.21723372045600 VZLUSAT 1 1 42790U 17036AB 18109.12088047 .00001756 00000-0 79802-4 0 9997 2 42790 097.4074 170.0038 0009836 285.6809 074.3341 15.22038831045530 VENTA 1 1 42791U 17036AC 18109.46917238 .00001247 00000-0 57984-4 0 9990 2 42791 097.4070 170.2998 0009810 285.0308 074.9842 15.21783891045572 Robusta 1B 1 42792U 17036AD 18109.85406413 .00001276 00000-0 59144-4 0 9994 2 42792 97.4067 170.6943 0009738 283.9033 76.1119 15.21862709 45650 D-SAT 1 42794U 17036AF 18109.71904672 .00000401 00000-0 40124-4 0 9998 2 42794 97.5979 166.5661 0128606 116.5459 244.9010 14.90828423 45010 BIRD-J 1 42820U 98067MU 18109.79218954 .00019792 00000-0 20024-3 0 9999 2 42820 51.6359 297.5183 0002574 288.9782 71.0935 15.65291987 44707 BIRD-G 1 42821U 98067MV 18108.99678556 .00020370 00000-0 20942-3 0 9992 2 42821 51.6356 301.9571 0002469 288.7808 71.2919 15.64863980 44550 BIRD-M 1 42822U 98067MW 18109.56095247 .00018129 00000-0 18563-3 0 9992 2 42822 051.6358 298.9776 0002490 293.2281 066.8452 15.65056118044667 BIRD-B 1 42823U 98067MX 18109.75147136 .00018418 00000-0 18789-3 0 9990 2 42823 51.6365 298.0138 0004677 323.6430 36.4247 15.65131164 44673 BIRD-N 1 42824U 98067MY 18109.76899084 .00017765 00000-0 18256-3 0 9991 2 42824 51.6370 298.1437 0004564 324.5024 35.5667 15.64975834 44661 TechnoSat 1 42829U 17042E 18109.76901865 .00000135 00000-0 19153-4 0 9992 2 42829 97.6012 14.3077 0015272 38.8090 321.4222 14.90797683 41633 TOMSK-TPU 120 1 42910U 98067MZ 18109.83875443 .00014461 00000-0 16476-3 0 9990 2 42910 51.6357 300.8189 0005507 351.0087 9.0807 15.62509832 38258 TANYUSHA 1 1 42911U 98067NA 18109.79065775 .00016511 00000-0 18205-3 0 9995 2 42911 51.6364 300.5308 0005023 344.3307 15.7531 15.63236874 38230 TANYUSHA 2 1 42912U 98067NB 18109.77394205 .00014960 00000-0 16851-3 0 9998 2 42912 51.6372 301.1361 0004452 358.7757 1.3225 15.62777299 38241 SFERA 2 1 42913U 98067NC 18109.57946454 .00029849 00000-0 26538-3 0 9991 2 42913 051.6344 297.5722 0002686 351.7537 008.3415 15.68246892038273 TNS 0-2 1 42914U 98067ND 18109.87616743 .00015388 00000-0 17646-3 0 9993 2 42914 51.6370 301.1016 0004454 352.5423 7.5504 15.62286408 38247 QIKCOM-1 1 42983U 98067NF 18109.82943846 .00003080 00000-0 50619-4 0 9995 2 42983 51.6402 308.3216 0003953 347.2381 12.8510 15.55844133 27136 AO-91 1 43017U 17073E 18109.51908586 .00000609 00000-0 52668-4 0 9990 2 43017 097.7046 043.1099 0261547 102.5171 260.5431 14.77978614022445 EcAMSat 1 43019U 98067NG 18109.80347597 .00004969 00000-0 75731-4 0 9994 2 43019 51.6399 308.1477 0004542 318.0606 42.0037 15.56445171109455 PICSAT 1 43132U 18004X 18109.61817250 .00001325 00000-0 60331-4 0 9993 2 43132 097.5396 172.1275 0008632 309.5913 050.4561 15.22474258014802 AO-92 1 43137U 18004AC 18109.41271876 .00001076 00000-0 49445-4 0 9990 2 43137 97.5393 171.9381 0008219 313.0670 46.9877 15.22574476 14768 TianYi 2 1 43155U 18008A 18109.86977506 .00001008 00000-0 64957-4 0 9996 2 43155 97.5283 185.3286 0017472 351.4165 119.9662 15.10458967 13681 TianYi 6 1 43158U 18008D 18109.85753753 .00000377 00000-0 27355-4 0 9993 2 43158 97.5278 185.2100 0013832 346.4731 148.3924 15.09622227 13655 S-Net G 1 43186U 18014G 18109.78066874 -.00000053 00000-0 49812-6 0 9990 2 43186 97.7289 18.9962 0011073 355.8994 4.2135 14.96424212 11581 S-Net H 1 43187U 18014H 18109.78062594 -.00000059 00000-0 -33034-7 0 9993 2 43187 97.7286 18.9947 0011073 355.8419 4.2708 14.96425012 11589 S-Net J 1 43188U 18014J 18109.78058168 -.00000039 00000-0 17096-5 0 9991 2 43188 97.7289 18.9970 0011071 355.9662 4.1469 14.96425978 11582 S-Net K 1 43189U 18014K 18109.78063663 -.00000064 00000-0 -47960-6 0 9991 2 43189 97.7286 18.9941 0011070 355.8754 4.2375 14.96424689 10133 FMN 1 1 43192U 18015A 18109.61642003 .00002171 00000-0 96220-4 0 9999 2 43192 097.3460 239.7555 0017210 355.0559 005.0511 15.22557480011608 Shaonian Xing 1 43199U 18015H 18109.63317342 .00001608 00000-0 70077-4 0 9999 2 43199 097.3236 239.6609 0018287 008.1934 351.9599 15.23493755011629 /EX
